Theta_e
313 313 313 312 311 312 311 310 311 311 311 311 311 311 312 310 308 306 304 305 299 293 296 299 298 294 294 296 292 295 295 293 293 292 292 293 293 295 295 299 300 298 297 296 298 297 297 316 313 309 318 325 322 321
313 313 313 312 311 312 311 311 311 311 311 311 311 311 311 310 309 308 301 305 305 295 295 303 303 304 302 300 296 297 295 293 297 291 297 295 294 299 298 294 307 300 303 302 302 302 314 318 319 323 326 326 328 329
312 312 313 312 310 310 311 310 310 310 311 311 311 311 311 311 310 308 304 304 301 296 295 296 298 304 307 305 304 292 296 298 294 298 293 296 293 300 297 298 304 308 311 307 307 310 316 317 322 324 327 327 329 331
312 312 312 311 310 310 311 310 310 310 310 311 311 311 310 311 310 308 303 305 302 297 290 297 306 302 306 306 305 304 301 302 301 299 292 292 294 300 297 302 304 309 311 310 313 315 315 319 320 323 325 329 330 332
311 312 311 310 309 310 311 310 309 310 310 310 311 310 310 310 309 307 306 306 306 297 291 293 302 305 306 306 304 304 301 298 296 293 292 294 299 298 300 303 304 308 306 307 307 308 309 313 319 325 325 325 330 334
311 312 311 310 309 310 310 309 309 309 309 310 311 310 309 309 308 304 296 305 306 304 293 290 304 303 304 304 303 302 301 299 297 293 293 297 301 298 294 296 308 312 312 310 306 311 312 314 316 325 326 336 342 344
311 311 310 309 308 310 310 310 309 309 309 310 310 309 309 308 306 300 298 304 307 305 293 289 295 301 301 302 303 302 303 299 298 295 295 298 300 300 297 292 303 305 308 308 309 312 310 313 313 325 329 327 341 346
311 310 309 308 309 310 309 309 310 308 308 310 309 309 309 308 306 301 306 308 307 301 297 289 292 297 304 301 299 303 299 299 299 296 298 297 298 300 295 300 300 302 306 305 308 313 314 316 318 325 325 324 333 341
311 309 308 307 309 309 309 310 310 308 309 309 309 309 309 305 300 303 309 309 308 300 289 288 288 291 305 304 305 303 303 295 301 296 298 299 296 293 298 300 299 304 309 310 308 312 315 316 318 322 324 324 324 328
309 309 308 308 309 309 310 310 308 308 308 309 310 304 300 303 309 309 303 298 297 295 296 288 292 290 300 302 301 301 301 295 293 297 302 295 296 301 302 305 308 309 311 311 306 307 311 317 319 319 323 325 325 327
309 308 307 309 309 309 310 309 308 308 307 310 304 302 307 310 304 298 291 290 288 288 291 292 292 291 304 296 299 305 298 299 291 296 296 293 295 301 306 308 309 309 310 312 311 312 315 322 321 320 320 323 326 328
308 307 307 309 309 310 309 309 308 311 314 309 309 310 309 302 296 290 287 287 285 286 292 292 295 297 300 304 299 302 297 299 290 302 295 294 299 303 306 308 311 311 310 311 312 312 314 322 324 320 321 324 327 330
307 306 308 308 309 310 309 309 308 308 308 314 308 306 308 306 293 291 290 294 291 289 295 297 296 298 304 304 298 297 295 294 302 297 295 295 299 302 305 308 308 313 311 312 310 310 313 319 324 323 322 326 326 330
307 306 308 308 310 310 310 309 309 310 313 312 307 294 300 298 300 301 300 301 301 297 296 297 295 295 297 294 291 289 291 293 292 289 289 293 296 300 305 310 310 311 313 313 313 309 311 317 321 323 326 327 327 328
307 307 308 309 310 310 310 309 309 316 317 308 306 297 301 305 305 305 307 307 308 308 300 297 296 295 292 290 290 292 291 288 288 288 289 297 298 300 302 306 308 311 314 316 316 313 314 317 318 322 325 326 328 328
307 308 312 308 308 309 309 312 318 321 318 309 308 303 306 304 304 305 305 305 309 309 309 305 300 295 293 294 292 290 288 286 292 296 298 303 302 300 301 305 307 309 311 313 318 317 317 318 317 319 323 326 327 327
306 318 307 308 307 308 309 318 321 312 309 307 305 309 307 307 305 305 307 306 310 306 301 304 297 295 300 292 287 292 292 297 301 302 305 304 302 303 303 304 306 307 308 309 309 311 312 313 314 314 313 317 323 324
315 316 310 308 309 315 324 322 315 310 304 308 304 307 309 309 307 307 308 308 307 305 303 300 302 296 293 292 293 301 304 306 306 305 303 304 305 306 306 305 306 307 306 308 309 309 309 309 308 308 310 312 312 316
310 310 308 308 310 319 317 317 318 306 307 311 312 311 311 310 311 311 310 309 309 308 304 302 297 295 296 300 300 302 302 303 304 303 303 306 306 306 305 307 310 308 308 307 308 309 310 310 310 311 311 312 310 313
307 308 309 310 311 321 312 316 321 312 308 309 313 310 310 310 313 310 310 309 307 304 301 299 299 301 301 302 303 301 300 301 300 298 300 302 304 306 306 305 304 307 306 311 312 306 312 312 313 314 313 311 311 310
312 319 313 317 327 321 317 317 315 315 315 311 315 312 310 314 310 309 308 311 306 303 301 304 304 305 307 306 305 304 303 302 299 299 299 299 302 303 303 303 305 304 303 303 305 306 305 308 310 313 313 313 313 315
323 313 325 324 323 317 315 319 316 319 314 314 314 314 310 309 308 310 313 307 306 307 308 307 306 306 305 305 305 306 305 304 303 300 299 299 299 299 299 300 301 300 301 302 303 304 306 306 307 307 309 310 310 313
315 318 323 323 317 309 306 319 313 314 308 311 313 308 309 310 312 315 308 308 308 313 310 309 308 309 306 307 308 307 306 305 301 300 300 300 300 300 300 300 300 299 300 302 305 305 306 301 305 306 306 305 306 308
310 318 314 314 314 306 314 311 315 313 313 310 308 305 308 311 314 309 305 309 312 315 310 310 306 305 307 307 307 305 305 305 303 301 301 300 298 298 299 299 299 299 300 300 301 302 304 303 300 305 305 304 304 304
307 306 308 297 314 309 307 307 308 309 305 307 305 306 309 313 307 305 303 308 312 312 313 312 307 308 307 306 307 305 306 304 302 300 300 300 299 299 298 299 299 299 299 298 297 298 298 300 300 299 299 301 301 299
296 310 303 309 310 308 308 303 305 305 306 305 307 312 313 309 302 300 307 311 313 313 312 312 313 308 307 309 308 307 305 306 305 301 300 300 299 297 296 296 295 296 299 298 297 296 296 296 297 297 297 296 294 296
299 308 313 317 316 315 311 313 315 310 304 304 309 307 307 300 300 307 313 316 316 316 316 316 315 312 308 307 307 308 307 306 303 301 302 301 300 300 298 296 295 296 299 298 297 296 295 295 295 295 295 296 297 296
311 314 309 313 312 314 308 308 306 304 307 313 311 304 302 303 305 314 316 318 317 316 315 314 312 310 309 308 308 308 308 307 306 302 302 301 301 300 300 299 299 292 297 297 296 296 295 295 294 294 294 294 295 296
312 316 316 311 312 313 311 308 308 311 316 313 309 308 309 316 318 316 318 317 315 313 310 308 308 309 308 308 307 306 304 301 298 295 295 294 295 296 298 298 298 298 297 297 291 293 294 294 295 295 295 295 295 296
311 318 313 311 309 307 312 315 315 317 319 318 318 317 316 317 319 323 320 317 312 311 311 310 309 309 306 305 302 301 301 300 299 297 294 294 295 297 297 297 297 297 297 296 295 295 292 294 293 295 294 294 294 294
316 316 312 311 308 313 317 318 318 318 317 317 319 316 316 317 318 321 321 317 313 311 310 309 309 309 306 304 303 301 298 300 299 299 297 297 297 297 297 297 297 297 296 295 294 294 293 293 293 293 292 291 292 292
315 313 310 308 310 317 316 314 314 314 315 314 314 317 315 314 312 314 313 313 311 310 304 309 308 305 304 302 301 300 295 299 298 297 297 296 296 296 296 296 295 295 294 294 294 293 293 292 292 292 291 291 291 292
315 315 314 313 311 312 313 312 311 312 313 313 314 315 315 314 310 314 314 316 314 311 310 308 306 304 303 302 300 299 297 297 291 288 288 287 286 289 294 295 295 295 294 294 294 293 293 292 292 292 291 290 290 291
Wind_Speed
15 17 19 20 19 17 17 17 15 13 11 11 10 10 16 15 20 7 2 6 4 3 8 14 13 11 10 8 6 5 5 2 2 7 6 5 9 9 13 12 14 14 11 10 13 13 12 10 8 15 7 15 15 9
14 17 19 20 19 18 17 16 14 12 11 10 10 8 8 17 17 14 3 5 5 2 5 9 12 16 13 20 8 5 5 1 1 5 3 3 6 4 10 11 9 9 11 8 11 12 2 8 12 13 11 13 14 16
14 17 18 20 20 19 17 17 14 12 11 9 10 8 7 14 16 16 3 4 3 3 4 9 11 11 15 16 13 6 5 6 4 3 3 6 6 4 7 13 5 6 2 6 1 8 7 12 10 13 13 17 16 16
14 17 18 20 21 20 18 16 14 12 11 10 9 9 8 8 16 16 4 4 2 0 3 4 2 4 5 9 13 16 15 2 1 2 2 5 7 5 9 9 8 5 3 1 10 7 17 7 18 18 18 16 19 18
14 17 20 21 22 19 18 15 14 12 11 10 8 7 6 6 13 8 4 4 4 2 2 6 18 9 5 13 12 13 14 10 2 2 3 4 7 5 9 6 7 5 7 3 6 11 9 14 18 20 20 20 19 19
15 17 19 22 22 20 17 14 14 12 10 9 6 5 2 2 13 3 2 5 7 4 2 4 5 1 1 4 12 15 11 8 7 2 3 4 15 8 4 3 7 9 9 10 7 12 15 13 17 19 19 21 22 20
16 18 22 22 21 19 16 15 12 9 8 7 2 3 2 12 4 2 1 2 9 4 2 3 4 6 3 6 7 7 12 6 5 3 5 6 7 6 3 3 9 13 14 14 12 15 13 15 15 19 17 19 21 15
17 19 21 22 20 18 16 14 10 6 5 1 3 4 5 12 5 1 2 7 8 2 2 2 5 3 4 4 4 6 7 7 7 4 4 4 7 3 4 6 13 15 17 10 12 16 13 15 15 17 15 13 18 17
18 21 22 22 20 18 16 13 6 2 1 4 6 8 3 1 2 1 6 12 1 1 1 1 3 3 1 2 3 4 5 7 7 8 10 7 5 3 4 9 11 15 12 14 17 17 14 17 16 17 19 20 19 19
22 22 22 21 19 17 14 9 3 3 7 8 4 1 2 2 3 7 2 1 2 2 0 1 2 4 6 1 2 3 5 6 4 2 2 5 7 3 3 7 8 11 13 12 14 15 19 19 16 18 19 18 14 14
22 23 23 21 19 14 11 4 5 9 8 2 0 1 4 4 1 2 2 1 1 1 1 1 3 3 1 5 3 2 3 3 3 3 1 4 4 3 7 8 10 11 11 11 12 13 15 20 14 16 17 18 16 16
22 23 22 20 16 14 4 5 8 5 2 3 2 1 3 2 2 2 2 2 1 1 1 2 0 3 3 4 3 3 3 3 2 4 5 1 8 16 16 14 13 12 13 12 12 14 14 19 16 14 15 16 17 14
22 23 21 18 18 7 4 5 6 4 6 3 2 2 2 4 7 7 9 3 3 2 2 1 1 2 1 2 2 4 5 4 9 4 5 6 17 20 19 16 13 12 12 13 11 11 14 18 16 15 15 16 16 15
21 21 18 12 13 7 3 3 4 6 5 3 6 7 7 7 8 6 8 7 3 3 2 1 3 4 3 3 3 3 3 4 5 6 6 9 18 18 15 11 11 11 9 11 9 11 12 16 14 14 12 11 14 15
21 20 15 10 11 8 3 1 4 4 4 5 6 7 8 5 8 9 9 6 5 2 5 3 2 2 1 1 1 2 4 5 4 4 3 6 15 18 16 14 10 8 6 8 8 8 10 11 13 12 11 11 10 12
21 15 3 8 12 10 8 7 4 3 1 5 8 8 9 11 13 13 12 11 7 5 3 3 2 2 4 4 4 5 3 4 5 4 4 10 10 17 18 15 14 11 11 10 5 5 5 8 1 9 10 11 10 10
19 2 5 9 14 12 7 5 3 5 6 6 6 6 8 10 9 10 11 10 10 8 8 2 7 6 4 4 5 1 2 3 6 6 7 10 11 11 14 16 17 16 15 15 12 11 10 11 11 10 11 11 14 13
3 4 7 11 12 4 1 3 3 4 5 5 7 8 7 9 9 8 8 10 9 10 8 7 8 12 5 7 6 8 8 6 6 7 8 10 13 13 9 11 12 14 15 14 12 11 12 14 11 8 8 10 10 12
12 14 20 18 7 4 3 2 3 2 3 2 2 4 4 7 7 7 7 8 9 8 10 6 7 11 10 8 9 10 8 6 7 7 9 11 11 12 14 14 12 9 10 12 10 8 8 9 7 6 8 8 7 8
16 11 7 2 5 3 2 2 2 2 2 4 2 3 3 5 3 6 7 7 7 7 8 8 9 7 7 7 8 8 8 8 8 8 9 10 10 12 13 12 11 12 9 11 11 10 8 7 7 7 6 6 5 7
6 3 3 4 3 3 3 1 2 2 2 3 2 3 2 1 4 5 6 4 6 6 6 4 5 5 5 6 7 8 8 8 7 7 8 8 10 10 10 11 13 11 11 11 11 11 11 11 10 10 11 9 8 8
1 4 3 3 3 2 3 1 3 2 3 2 2 2 2 2 3 3 3 3 3 3 3 3 4 3 5 7 7 8 8 8 9 5 2 3 8 9 9 10 10 11 11 12 12 11 11 11 11 11 11 12 12 13
5 4 3 3 3 1 2 2 4 3 4 1 2 3 2 1 2 1 1 1 2 1 4 5 5 4 3 3 3 7 8 9 8 8 8 8 8 8 8 9 9 10 10 10 10 10 10 10 11 11 12 10 10 10
4 3 4 3 3 2 2 3 2 3 2 3 2 2 0 2 0 2 3 3 3 2 5 6 5 2 3 3 1 5 6 7 7 8 8 9 8 8 8 8 9 9 10 9 10 11 10 11 15 13 12 13 13 10
2 3 2 4 3 4 5 3 3 3 4 1 2 2 2 2 2 1 3 3 2 3 3 6 5 3 5 3 2 4 4 6 7 8 8 8 8 7 8 8 9 11 11 11 11 12 12 12 9 8 9 11 16 16
2 5 5 5 4 5 3 3 3 3 3 2 2 2 2 2 2 1 2 3 3 4 5 4 2 3 3 1 2 2 5 5 6 7 7 7 7 8 9 9 9 10 11 12 12 14 14 13 13 15 13 12 13 15
3 6 5 3 3 2 4 2 2 3 3 2 0 2 2 2 1 3 4 2 2 4 4 3 2 1 4 4 4 4 4 4 6 6 4 5 6 7 8 9 9 10 11 11 13 13 14 13 13 13 12 11 10 9
5 3 8 7 5 4 5 4 3 4 2 2 2 2 1 2 3 3 3 4 4 5 5 5 5 5 5 5 5 3 2 1 1 6 5 4 6 7 8 7 8 5 9 8 10 11 12 12 12 12 12 11 10 10
5 5 5 7 5 4 4 4 3 2 1 3 4 1 3 1 2 4 4 4 5 5 6 6 6 6 6 5 5 5 6 7 8 9 11 8 9 8 8 9 9 9 9 10 7 9 11 11 9 10 12 9 10 10
5 6 6 6 6 5 3 3 2 3 1 2 2 3 3 3 3 2 3 4 5 4 5 6 6 4 4 4 5 6 6 7 7 8 8 8 9 9 9 9 9 9 9 10 10 11 9 10 10 9 11 12 12 12
5 7 5 5 5 3 0 2 2 2 3 3 2 3 2 4 4 2 2 3 5 7 6 6 6 5 4 4 3 2 6 6 7 9 9 7 7 8 8 8 8 8 9 9 10 10 11 10 10 11 12 12 13 12
6 7 6 6 5 4 3 4 4 4 4 4 4 3 5 5 5 5 4 5 6 6 6 7 7 7 8 8 7 8 9 7 7 8 11 9 8 9 7 7 7 8 8 9 9 10 12 12 11 12 12 14 13 13
5 5 5 3 4 5 5 4 4 3 4 3 3 4 4 3 2 5 3 3 4 7 8 9 9 9 10 9 9 8 9 10 12 10 11 11 11 11 8 7 7 7 8 8 9 10 12 14 13 14 13 12 12 12
Wind_Direction
300 303 304 320 321 318 315 315 313 308 309 305 294 271 214 198 180 171 162 184 189 221 268 264 274 272 274 253 278 27 252 85 272 243 242 204 260 214 248 273 162 181 196 193 226 224 235 3 275 242 338 319 299 266
303 305 305 320 322 318 315 312 308 305 302 303 296 280 243 198 191 183 204 180 188 201 275 321 278 271 254 265 294 267 343 359 13 281 284 277 230 287 246 221 187 217 222 227 208 208 255 6 335 323 327 323 323 324
308 306 307 322 322 318 315 311 309 302 294 294 294 273 257 206 198 191 171 141 169 240 256 246 250 240 227 240 237 243 252 153 234 275 328 292 279 280 235 244 298 185 342 247 178 207 310 312 11 356 336 320 311 306
307 306 310 324 320 323 318 311 306 299 290 278 275 273 250 234 191 185 182 165 180 302 273 307 315 215 203 214 221 219 231 160 154 175 259 271 268 269 287 329 300 356 250 230 249 31 320 142 351 337 321 312 303 295
304 308 322 324 322 324 320 316 305 296 290 283 261 266 263 247 182 174 182 176 191 220 301 307 291 256 259 217 209 207 219 220 125 272 244 265 278 283 286 287 251 30 16 324 45 12 329 322 320 329 321 317 307 296
305 317 323 324 326 324 325 316 305 301 298 295 287 245 247 143 150 129 213 190 189 180 288 280 348 199 62 182 197 201 208 217 213 197 266 255 272 301 270 259 46 29 13 359 346 334 314 338 328 326 322 339 318 298
315 322 327 326 329 326 326 319 313 300 298 309 234 183 154 144 138 157 263 94 166 130 189 267 251 127 193 210 183 195 203 202 223 202 238 243 274 305 272 264 3 345 336 329 316 330 341 337 340 324 360 340 315 297
321 328 329 329 329 329 326 322 316 298 306 281 147 149 156 162 85 281 181 140 139 149 215 265 281 177 189 199 167 176 184 197 205 200 237 232 280 199 247 305 330 324 323 314 331 329 320 337 351 331 5 2 3 349
326 331 329 331 329 329 329 328 335 317 90 134 116 132 127 149 178 110 158 171 167 360 163 271 306 348 293 195 168 164 230 202 182 209 221 182 243 193 314 310 297 308 310 315 315 318 336 343 353 351 360 7 11 359
333 330 331 333 330 331 332 341 23 109 136 145 189 193 154 128 175 149 157 113 82 37 24 281 319 260 289 15 179 213 198 245 245 200 158 242 230 111 6 296 287 302 309 309 315 328 336 337 347 0 6 7 1 2
332 333 335 332 329 331 338 15 111 131 171 203 222 34 86 140 131 55 72 26 63 171 199 258 245 296 330 319 338 274 318 281 268 79 272 246 139 59 331 340 332 305 300 286 291 298 312 308 338 354 4 5 3 4
334 334 337 333 334 342 7 141 169 246 41 19 8 136 147 165 166 156 120 134 66 49 281 269 113 252 301 298 298 296 274 252 318 338 253 108 22 344 339 322 310 300 287 280 300 304 315 315 327 349 0 2 360 3
335 335 336 336 343 4 81 152 195 326 260 188 237 218 254 66 20 10 346 354 75 187 259 357 281 259 312 301 274 309 316 18 312 260 2 39 344 327 324 312 314 300 288 283 276 298 313 315 323 339 351 357 354 359
336 335 333 342 355 20 76 159 219 273 263 317 346 13 27 14 11 2 354 353 80 169 174 43 337 22 8 360 356 309 354 281 350 23 11 341 333 326 321 316 281 270 264 280 252 285 305 303 322 325 348 357 353 358
335 331 318 5 351 355 10 236 247 264 313 12 18 41 19 25 43 25 24 50 57 113 169 189 178 198 174 210 165 310 9 43 3 330 286 326 340 346 348 353 349 324 320 298 213 214 261 316 311 316 341 345 7 1
330 312 31 341 351 333 324 273 239 276 9 35 35 35 20 29 27 22 17 22 5 155 180 224 168 50 52 3 23 22 26 22 350 16 249 312 337 347 353 3 1 3 15 360 310 352 300 272 299 317 324 349 349 20
316 14 20 356 336 314 274 285 274 26 32 30 44 55 22 32 24 32 19 14 8 12 24 21 32 35 136 23 2 280 71 18 7 4 358 347 352 345 336 348 7 12 22 26 27 44 47 37 33 25 28 3 351 357
285 347 347 344 340 294 221 303 339 42 64 47 44 35 24 40 33 27 30 26 21 19 33 44 46 38 33 10 16 19 13 8 12 7 20 0 358 6 358 348 358 11 11 16 21 29 33 42 33 28 18 30 33 14
297 301 303 308 293 303 316 75 325 67 51 29 13 37 15 62 47 42 41 39 38 40 45 48 55 39 42 21 15 19 13 356 333 1 17 27 17 6 9 12 25 25 10 4 3 14 8 18 19 9 15 20 24 21
296 273 274 323 236 271 256 112 269 295 344 41 272 4 1 30 5 56 53 42 49 50 47 61 64 59 49 37 19 23 15 1 7 9 18 26 15 10 21 10 13 11 30 29 28 18 9 13 11 19 26 32 33 17
267 95 228 222 213 259 300 270 212 344 332 276 5 301 339 352 51 41 52 32 57 52 72 69 80 85 55 42 33 23 44 21 28 25 13 10 9 10 15 10 3 6 13 13 5 15 21 19 8 18 17 19 18 22
360 305 275 180 262 197 251 120 323 41 253 340 258 255 281 329 21 50 317 48 48 56 52 88 74 85 101 42 39 33 32 30 29 59 342 17 21 9 12 9 10 9 6 3 356 359 8 10 7 15 19 20 25 38
283 210 229 240 253 148 228 223 252 187 260 262 231 242 212 212 67 236 187 80 40 88 101 108 150 178 124 118 64 54 27 26 40 28 12 15 34 21 19 25 24 14 6 10 360 3 2 5 5 9 15 9 17 34
159 259 254 240 211 250 184 220 211 248 238 241 249 281 13 27 185 241 10 76 64 127 164 171 180 132 199 206 55 56 20 17 29 45 17 7 12 25 21 25 28 17 6 8 6 360 15 15 357 360 8 6 353 16
273 263 166 271 227 231 225 207 221 233 266 276 268 257 118 219 259 36 355 83 75 46 97 165 212 234 298 74 98 92 10 12 17 25 23 10 4 6 16 16 25 20 5 1 7 4 3 357 14 13 17 12 360 358
222 197 187 210 175 228 208 246 212 297 312 272 229 71 212 260 251 313 63 85 67 40 35 44 165 184 212 27 34 43 59 1 358 20 30 8 15 6 6 6 9 13 4 2 358 1 359 359 2 359 2 26 23 2
238 203 192 228 278 201 238 227 278 268 265 259 250 210 232 264 278 87 112 107 30 64 56 44 67 87 80 106 86 84 68 32 31 21 18 15 25 20 3 5 11 7 342 13 359 2 356 358 359 0 1 356 4 2
241 242 217 179 208 219 257 266 247 234 235 114 239 221 274 339 8 102 91 105 95 98 88 85 75 75 80 91 99 111 77 321 112 5 357 42 53 43 6 3 21 332 344 27 10 9 360 356 359 356 358 3 0 358
221 199 203 206 211 202 230 238 251 191 102 231 262 289 149 85 104 142 135 123 144 142 133 128 112 112 106 96 82 57 35 16 12 12 10 10 12 15 8 3 0 359 2 356 75 57 10 339 355 343 345 358 3 354
206 189 207 195 205 218 210 203 295 96 195 349 70 142 139 147 107 96 164 161 175 149 113 120 134 135 122 114 95 67 52 40 31 15 9 10 9 8 2 1 359 3 4 1 1 8 12 344 10 6 18 15 4 2
149 193 223 209 223 218 359 164 161 174 187 184 199 264 148 128 144 169 178 157 131 135 141 129 109 99 102 103 88 86 88 62 48 44 10 9 15 10 7 4 6 7 4 7 9 17 7 5 13 11 25 19 9 359
189 201 201 208 210 139 174 206 201 213 190 208 175 187 165 198 194 130 153 166 160 140 105 119 112 97 93 91 86 79 49 59 40 34 25 19 15 6 12 18 16 14 15 19 19 21 15 11 16 12 12 13 6 7
195 196 218 235 196 204 179 205 211 218 220 219 208 211 208 227 201 105 152 237 155 138 115 106 110 110 107 98 99 96 79 80 84 76 69 49 27 3 9 21 25 22 22 21 22 20 23 18 21 21 13 14 10 359